Location: *
(45.5667°S, 177.5167°W)
Time: 17:04:21
(UTC+00:00)

H-2A R/B - Pass Details

Date: 29 May 2022
Orbit: 734 x 835 km, 98.2° (Epoch: 28 June)

Event Time Altitude Azimuth Distance (km) Brightness Sun altitude
Exits shadow 05:55:26 12° 157° (SSE) 2,172 4.0 -16.6°
Maximum altitude 06:00:03 54° 80° (E) 902 2.0 -17.4°
Drops below altitude 10° 06:04:53 10° 2° (N) 2,248 4.5 -18.2°
Sets 06:07:12 0° 357° (N) 3,168 5.4 -18.6°
